GLD965 SBCT-SBSP

Flight info

Callsign GLD965
Flight time 0h 39m
Altitude 31000
Route EDVEB UM548 DOSMU DCT ANISE
Aircraft B737/M-SDE2E3FGHIRWXY/LB1

Departure

Time 2026-05-06 01:54
Airport Curitiba-Afonso Pena International Airport (SBCT)

Arrival

Time 2026-05-06 02:34
Airport Congonhas–Deputado Freitas Nobre Airport (SBSP)
Time Latitude Longitude Altitude Speed Heading
2026-05-06 01:43 -25.53301 -49.17378 2986 ft 0 kts 223°
2026-05-06 01:48 -25.53297 -49.17374 2986 ft 2 kts 223°
2026-05-06 01:48 -25.53286 -49.17362 2986 ft 2 kts 223°
2026-05-06 01:49 -25.53274 -49.17349 2986 ft 2 kts 223°
2026-05-06 01:49 -25.53262 -49.17337 2986 ft 2 kts 241°
2026-05-06 01:49 -25.53258 -49.17328 2986 ft 0 kts 271°
2026-05-06 01:50 -25.53251 -49.17349 2986 ft 7 kts 300°
2026-05-06 01:50 -25.53208 -49.17399 2985 ft 15 kts 314°
2026-05-06 01:50 -25.53133 -49.17483 2984 ft 15 kts 315°
2026-05-06 01:51 -25.53052 -49.17571 2982 ft 19 kts 315°
2026-05-06 01:51 -25.52986 -49.17690 2981 ft 18 kts 277°
2026-05-06 01:51 -25.52976 -49.17847 2981 ft 22 kts 285°
2026-05-06 01:51 -25.52876 -49.17968 2980 ft 21 kts 328°
2026-05-06 01:52 -25.52737 -49.18008 2981 ft 21 kts 356°
2026-05-06 01:52 -25.52595 -49.18006 2981 ft 20 kts
2026-05-06 01:52 -25.52462 -49.18021 2980 ft 19 kts 329°
2026-05-06 01:52 -25.52354 -49.18136 2981 ft 25 kts 314°
2026-05-06 01:53 -25.52230 -49.18234 2981 ft 21 kts 313°
2026-05-06 01:53 -25.52246 -49.18275 2981 ft 6 kts 129°
2026-05-06 01:53 -25.52266 -49.18236 2981 ft 7 kts 120°
2026-05-06 01:53 -25.52336 -49.18151 2981 ft 38 kts 134°
2026-05-06 01:54 -25.52702 -49.17740 2979 ft 111 kts 135°
2026-05-06 01:54 -25.53398 -49.16966 2991 ft 171 kts 134°
2026-05-06 01:54 -25.54267 -49.15967 3575 ft 183 kts 133°
2026-05-06 01:54 -25.55176 -49.14931 4346 ft 192 kts 133°
2026-05-06 01:55 -25.56093 -49.13881 5218 ft 200 kts 133°
2026-05-06 01:55 -25.57134 -49.12685 5402 ft 226 kts 133°
2026-05-06 01:55 -25.58274 -49.11377 5718 ft 246 kts 133°
2026-05-06 01:55 -25.59415 -49.09911 6121 ft 263 kts 116°
2026-05-06 01:56 -25.59730 -49.07908 6620 ft 263 kts 77°
2026-05-06 01:56 -25.59289 -49.06007 7453 ft 259 kts 72°
2026-05-06 01:56 -25.58754 -49.04049 7935 ft 272 kts 72°
2026-05-06 01:56 -25.58206 -49.02023 8637 ft 276 kts 72°
2026-05-06 01:57 -25.57675 -48.99970 9385 ft 278 kts 73°
2026-05-06 01:57 -25.57154 -48.97874 9807 ft 284 kts 74°
2026-05-06 01:57 -25.56649 -48.95757 9954 ft 284 kts 74°
2026-05-06 01:57 -25.56122 -48.93632 9953 ft 288 kts 70°
2026-05-06 01:58 -25.55376 -48.91591 9949 ft 283 kts 65°
2026-05-06 01:58 -25.54541 -48.89584 9968 ft 297 kts 64°
2026-05-06 01:58 -25.53625 -48.87426 9969 ft 322 kts 64°
2026-05-06 01:58 -25.52640 -48.85096 9931 ft 346 kts 64°
2026-05-06 01:59 -25.51602 -48.82611 9928 ft 366 kts 64°
2026-05-06 01:59 -25.50531 -48.80021 9892 ft 383 kts 64°
2026-05-06 01:59 -25.49422 -48.77317 9890 ft 388 kts 65°
2026-05-06 01:59 -25.48310 -48.74587 9876 ft 389 kts 65°
2026-05-06 02:00 -25.47198 -48.71852 9875 ft 390 kts 65°
2026-05-06 02:00 -25.46085 -48.69113 9873 ft 391 kts 65°
2026-05-06 02:00 -25.44971 -48.66370 9884 ft 391 kts 65°
2026-05-06 02:00 -25.43851 -48.63611 9872 ft 392 kts 65°
2026-05-06 02:01 -25.42733 -48.60859 9872 ft 392 kts 65°
2026-05-06 02:01 -25.41613 -48.58107 9870 ft 392 kts 65°
2026-05-06 02:01 -25.40492 -48.55353 9867 ft 392 kts 65°
2026-05-06 02:01 -25.39374 -48.52608 9859 ft 392 kts 65°
2026-05-06 02:02 -25.38257 -48.49867 9874 ft 391 kts 65°
2026-05-06 02:02 -25.37140 -48.47130 10006 ft 385 kts 65°
2026-05-06 02:02 -25.36070 -48.44506 10932 ft 368 kts 65°
2026-05-06 02:02 -25.35043 -48.41989 11794 ft 359 kts 65°
2026-05-06 02:03 -25.34017 -48.39478 12389 ft 359 kts 66°
2026-05-06 02:03 -25.32988 -48.36963 13007 ft 358 kts 66°
2026-05-06 02:03 -25.31966 -48.34463 13634 ft 356 kts 66°
2026-05-06 02:03 -25.30944 -48.31967 14234 ft 355 kts 66°
2026-05-06 02:04 -25.29928 -48.29488 14797 ft 353 kts 66°
2026-05-06 02:04 -25.28915 -48.27015 15373 ft 351 kts 66°
2026-05-06 02:04 -25.27907 -48.24558 15949 ft 350 kts 66°
2026-05-06 02:04 -25.26895 -48.22088 16331 ft 356 kts 66°
2026-05-06 02:05 -25.25865 -48.19579 16714 ft 361 kts 66°
2026-05-06 02:05 -25.24822 -48.17040 17118 ft 365 kts 66°
2026-05-06 02:05 -25.23769 -48.14476 17525 ft 369 kts 66°
2026-05-06 02:05 -25.22715 -48.11913 17931 ft 372 kts 66°
2026-05-06 02:06 -25.21641 -48.09301 18344 ft 375 kts 66°
2026-05-06 02:06 -25.20556 -48.06666 18715 ft 378 kts 66°
2026-05-06 02:06 -25.19463 -48.04015 19082 ft 381 kts 66°
2026-05-06 02:06 -25.18362 -48.01343 19448 ft 384 kts 66°
2026-05-06 02:07 -25.17250 -47.98647 19828 ft 386 kts 66°
2026-05-06 02:07 -25.16130 -47.95932 20205 ft 389 kts 66°
2026-05-06 02:07 -25.15004 -47.93206 20583 ft 391 kts 66°
2026-05-06 02:07 -25.13870 -47.90461 20968 ft 394 kts 66°
2026-05-06 02:08 -25.12730 -47.87704 21344 ft 396 kts 66°
2026-05-06 02:08 -25.11585 -47.84938 21752 ft 397 kts 66°
2026-05-06 02:08 -25.10450 -47.82197 22131 ft 398 kts 66°
2026-05-06 02:08 -25.09285 -47.79385 22549 ft 399 kts 66°
2026-05-06 02:09 -25.08128 -47.76592 22974 ft 400 kts 66°
2026-05-06 02:09 -25.06984 -47.73837 23362 ft 401 kts 66°
2026-05-06 02:09 -25.05823 -47.71039 23781 ft 401 kts 66°
2026-05-06 02:09 -25.04660 -47.68239 24121 ft 401 kts 66°
2026-05-06 02:10 -25.03496 -47.65438 24476 ft 402 kts 66°
2026-05-06 02:10 -25.02329 -47.62632 24828 ft 402 kts 66°
2026-05-06 02:10 -25.01161 -47.59825 25190 ft 402 kts 66°
2026-05-06 02:10 -24.99998 -47.57033 25555 ft 402 kts 66°
2026-05-06 02:11 -24.98830 -47.54229 25932 ft 401 kts 66°
2026-05-06 02:11 -24.97668 -47.51441 26304 ft 400 kts 66°
2026-05-06 02:11 -24.96503 -47.48650 26676 ft 399 kts 66°
2026-05-06 02:11 -24.95359 -47.45909 27050 ft 399 kts 67°
2026-05-06 02:12 -24.94185 -47.43098 27025 ft 410 kts 67°
2026-05-06 02:12 -24.92979 -47.40208 27059 ft 419 kts 67°
2026-05-06 02:12 -24.91744 -47.37252 27011 ft 430 kts 67°
2026-05-06 02:12 -24.90462 -47.34186 26571 ft 452 kts 66°
2026-05-06 02:13 -24.89126 -47.30995 26221 ft 462 kts 66°
2026-05-06 02:13 -24.87786 -47.27801 25782 ft 457 kts 66°
2026-05-06 02:13 -24.86459 -47.24641 25360 ft 453 kts 66°
2026-05-06 02:13 -24.85142 -47.21508 24957 ft 448 kts 66°
2026-05-06 02:14 -24.83849 -47.18433 24516 ft 438 kts 66°
2026-05-06 02:14 -24.82588 -47.15435 24129 ft 425 kts 66°
2026-05-06 02:14 -24.81359 -47.12515 23761 ft 414 kts 66°
2026-05-06 02:14 -24.80165 -47.09678 23346 ft 404 kts 66°
2026-05-06 02:15 -24.78996 -47.06903 22916 ft 395 kts 66°
2026-05-06 02:15 -24.77841 -47.04160 22498 ft 395 kts 66°
2026-05-06 02:15 -24.76689 -47.01425 22109 ft 393 kts 66°
2026-05-06 02:15 -24.75541 -46.98703 21713 ft 391 kts 66°
2026-05-06 02:16 -24.74396 -46.95991 21324 ft 389 kts 66°
2026-05-06 02:16 -24.73260 -46.93302 20935 ft 387 kts 66°
2026-05-06 02:16 -24.72142 -46.90655 20561 ft 385 kts 66°
2026-05-06 02:16 -24.71039 -46.88047 20192 ft 383 kts 65°
2026-05-06 02:17 -24.69918 -46.85397 19817 ft 382 kts 65°
2026-05-06 02:17 -24.68798 -46.82752 19440 ft 380 kts 65°
2026-05-06 02:17 -24.67683 -46.80120 19081 ft 378 kts 65°
2026-05-06 02:17 -24.66576 -46.77509 18727 ft 376 kts 65°
2026-05-06 02:18 -24.65472 -46.74905 18353 ft 374 kts 65°
2026-05-06 02:18 -24.64376 -46.72322 17945 ft 372 kts 65°
2026-05-06 02:18 -24.63286 -46.69755 17539 ft 370 kts 65°
2026-05-06 02:18 -24.62200 -46.67200 17138 ft 367 kts 65°
2026-05-06 02:19 -24.60843 -46.64856 16705 ft 365 kts 45°
2026-05-06 02:19 -24.58805 -46.63252 16325 ft 357 kts 24°
2026-05-06 02:19 -24.56482 -46.62534 15933 ft 348 kts
2026-05-06 02:19 -24.54095 -46.62434 15573 ft 339 kts 359°
2026-05-06 02:20 -24.49471 -46.62518 14804 ft 326 kts 359°
2026-05-06 02:20 -24.47219 -46.62546 14424 ft 320 kts 359°
2026-05-06 02:20 -24.45011 -46.62556 14063 ft 315 kts
2026-05-06 02:21 -24.42834 -46.62559 13680 ft 309 kts
2026-05-06 02:21 -24.41421 -46.62561 13429 ft 306 kts
2026-05-06 02:21 -24.39312 -46.62563 13035 ft 300 kts
2026-05-06 02:21 -24.37235 -46.62565 12669 ft 296 kts
2026-05-06 02:22 -24.35188 -46.62566 12295 ft 291 kts
2026-05-06 02:22 -24.33174 -46.62567 11930 ft 287 kts
2026-05-06 02:22 -24.31176 -46.62567 11570 ft 287 kts
2026-05-06 02:22 -24.29187 -46.62569 11219 ft 284 kts
2026-05-06 02:23 -24.27221 -46.62570 10849 ft 280 kts
2026-05-06 02:23 -24.25283 -46.62571 10507 ft 276 kts
2026-05-06 02:23 -24.23359 -46.62572 10172 ft 277 kts
2026-05-06 02:23 -24.21454 -46.62414 10005 ft 270 kts
2026-05-06 02:24 -24.19616 -46.62126 9959 ft 265 kts
2026-05-06 02:24 -24.17747 -46.61805 10030 ft 276 kts
2026-05-06 02:24 -24.15813 -46.61483 9901 ft 285 kts
2026-05-06 02:24 -24.13847 -46.61335 9856 ft 280 kts
2026-05-06 02:25 -24.11921 -46.61029 9694 ft 281 kts 10°
2026-05-06 02:25 -24.09981 -46.60652 9388 ft 283 kts 11°
2026-05-06 02:25 -24.08067 -46.60283 9110 ft 276 kts 10°
2026-05-06 02:25 -24.06209 -46.59942 8766 ft 264 kts 10°
2026-05-06 02:26 -24.04440 -46.59632 8516 ft 253 kts 10°
2026-05-06 02:26 -24.02752 -46.59343 8255 ft 244 kts
2026-05-06 02:26 -24.01099 -46.59066 8008 ft 236 kts
2026-05-06 02:26 -23.99496 -46.58800 7802 ft 233 kts
2026-05-06 02:27 -23.98130 -46.58575 7589 ft 232 kts 10°
2026-05-06 02:27 -23.96535 -46.58313 7333 ft 231 kts 10°
2026-05-06 02:27 -23.94950 -46.58054 7085 ft 230 kts 10°
2026-05-06 02:27 -23.93370 -46.57797 6833 ft 229 kts 10°
2026-05-06 02:28 -23.91793 -46.57540 6583 ft 229 kts 10°
2026-05-06 02:28 -23.90219 -46.57284 6310 ft 228 kts 10°
2026-05-06 02:28 -23.88655 -46.57030 6050 ft 228 kts 10°
2026-05-06 02:28 -23.87094 -46.56777 5837 ft 223 kts 10°
2026-05-06 02:29 -23.85589 -46.56533 5574 ft 214 kts 10°
2026-05-06 02:29 -23.84135 -46.56297 5318 ft 211 kts 10°
2026-05-06 02:29 -23.82669 -46.56058 5071 ft 214 kts 11°
2026-05-06 02:29 -23.81209 -46.55822 4801 ft 208 kts 11°
2026-05-06 02:30 -23.79825 -46.55598 4542 ft 198 kts 11°
2026-05-06 02:30 -23.78505 -46.55385 4351 ft 185 kts 11°
2026-05-06 02:30 -23.77239 -46.55508 4253 ft 190 kts 334°
2026-05-06 02:30 -23.76109 -46.56271 4260 ft 193 kts 328°
2026-05-06 02:31 -23.74981 -46.57082 4251 ft 191 kts 329°
2026-05-06 02:31 -23.73887 -46.57857 4235 ft 184 kts 329°
2026-05-06 02:31 -23.72817 -46.58611 4189 ft 183 kts 329°
2026-05-06 02:31 -23.71755 -46.59353 4229 ft 180 kts 330°
2026-05-06 02:32 -23.70686 -46.60099 4172 ft 182 kts 330°
2026-05-06 02:32 -23.69639 -46.60821 4137 ft 181 kts 330°
2026-05-06 02:32 -23.68579 -46.61567 4124 ft 176 kts 330°
2026-05-06 02:32 -23.67598 -46.62253 4127 ft 160 kts 332°
2026-05-06 02:33 -23.66662 -46.62883 4016 ft 158 kts 331°
2026-05-06 02:33 -23.66031 -46.63319 3838 ft 163 kts 329°
2026-05-06 02:34 -23.62761 -46.65589 2640 ft 144 kts 328°
2026-05-06 02:34 -23.62134 -46.66014 2599 ft 31 kts 328°
2026-05-06 02:34 -23.62054 -46.66101 2595 ft 17 kts 263°
2026-05-06 02:34 -23.62142 -46.66112 2588 ft 12 kts 150°
2026-05-06 02:35 -23.62190 -46.66082 2599 ft 6 kts 150°
2026-05-06 02:35 -23.62242 -46.66051 2602 ft 9 kts 153°
2026-05-06 02:35 -23.62330 -46.66025 2605 ft 14 kts 155°
2026-05-06 02:35 -23.62428 -46.65960 2608 ft 27 kts 147°
2026-05-06 02:36 -23.62504 -46.65943 2611 ft 7 kts 227°
2026-05-06 02:36 -23.62512 -46.65959 2611 ft 0 kts 241°
2026-05-06 02:36 -23.62513 -46.65960 2611 ft 0 kts 239°
2026-05-06 02:36 -23.62513 -46.65961 2611 ft 0 kts 239°